TimeMDT,TemperatureF,Dew PointF,Humidity,Sea Level PressureIn,VisibilityMPH,Wind Direction,Wind SpeedMPH,Gust SpeedMPH,PrecipitationIn,Events,Conditions,WindDirDegrees,DateUTC
12:53 AM,57.9,16.0,19,29.72,10.0,West,11.5,-,N/A,,Clear,280,2013-03-18 06:53:00
1:53 AM,55.9,15.1,20,29.73,10.0,NW,4.6,-,N/A,,Clear,310,2013-03-18 07:53:00
2:53 AM,53.1,16.0,23,29.76,10.0,Calm,Calm,-,N/A,,Clear,0,2013-03-18 08:53:00
3:53 AM,48.9,15.1,26,29.78,10.0,NE,3.5,-,N/A,,Clear,50,2013-03-18 09:53:00
4:53 AM,52.0,17.1,25,29.78,10.0,NNW,6.9,-,N/A,,Clear,330,2013-03-18 10:53:00
5:53 AM,46.9,16.0,29,29.81,10.0,WSW,8.1,-,N/A,,Clear,250,2013-03-18 11:53:00
6:53 AM,51.1,15.1,24,29.82,10.0,NW,9.2,-,N/A,,Clear,320,2013-03-18 12:53:00
7:53 AM,48.9,15.1,26,29.86,10.0,West,5.8,-,N/A,,Clear,270,2013-03-18 13:53:00
8:53 AM,52.0,15.1,23,29.88,10.0,West,6.9,-,N/A,,Clear,280,2013-03-18 14:53:00
9:53 AM,57.9,12.9,17,29.88,10.0,NNW,4.6,-,N/A,,Clear,330,2013-03-18 15:53:00
10:53 AM,61.0,12.9,15,29.87,10.0,ESE,3.5,-,N/A,,Clear,120,2013-03-18 16:53:00
11:53 AM,64.9,12.0,13,29.85,10.0,South,13.8,-,N/A,,Clear,180,2013-03-18 17:53:00
12:53 PM,69.1,5.0,8,29.81,10.0,SSW,10.4,20.7,N/A,,Clear,200,2013-03-18 18:53:00
1:53 PM,71.1,3.0,7,29.77,10.0,South,10.4,19.6,N/A,,Clear,170,2013-03-18 19:53:00
2:53 PM,73.0,3.0,6,29.75,10.0,West,11.5,17.3,N/A,,Clear,280,2013-03-18 20:53:00
3:53 PM,75.9,1.0,5,29.73,10.0,WNW,10.4,19.6,N/A,,Clear,290,2013-03-18 21:53:00
4:53 PM,75.0,3.0,6,29.71,10.0,Variable,4.6,16.1,N/A,,Clear,0,2013-03-18 22:53:00
5:53 PM,75.9,6.1,7,29.73,10.0,WNW,15.0,23.0,N/A,,Clear,300,2013-03-18 23:53:00
6:53 PM,73.0,6.1,7,29.74,10.0,West,5.8,-,N/A,,Clear,270,2013-03-19 00:53:00
7:53 PM,68.0,9.0,10,29.78,10.0,West,15.0,-,N/A,,Clear,260,2013-03-19 01:53:00
8:53 PM,64.9,7.0,10,29.81,10.0,West,12.7,-,N/A,,Clear,260,2013-03-19 02:53:00
9:53 PM,62.1,7.0,11,29.83,10.0,West,11.5,-,N/A,,Clear,270,2013-03-19 03:53:00
10:53 PM,57.0,7.0,14,29.85,10.0,NE,5.8,-,N/A,,Clear,40,2013-03-19 04:53:00
11:53 PM,57.9,12.9,17,29.84,10.0,WNW,9.2,-,N/A,,Clear,290,2013-03-19 05:53:00